Hebron, Canada

7:56 AM AST on February 25, 2017 (GMT -0400)
Saglek Bay

Weather History for CWZZ - July, 2013

Change the Weather History Date:

Monday, July 8, 2013

  Actual Average Record
Temperature  
Mean Temperature 32 °F -  
Max Temperature 37 °F - - ()
Min Temperature 28 °F - - ()
Degree Days  
Heating Degree Days 32    
Moisture  
Dew Point -    
Average Humidity    
Maximum Humidity    
Minimum Humidity    
Precipitation  
Precipitation 0.00 in - - ()
Sea Level Pressure  
Sea Level Pressure 29.71 in    
Wind  
Wind Speed - ()    
Max Wind Speed -    
Max Gust Speed -    
Visibility 2.6 miles    
Events      
T = Trace of Precipitation, MM = Missing Value Source: Averaged Metar Reports

Daily Weather History Graph

Daily Weather History Graph

Search for Another Location

Airport or City:

Trip Planner

Search our weather history database for the weather conditions in past years. The results will help you decide how hot, cold, wet, or windy it might be!

Date:

Astronomy

Jul. 08, 2013 Rise Set
Actual Time 4:17 AM ADT 10:12 PM ADT
Civil Twilight 3:06 AM ADT 11:22 PM ADT
Nautical Twilight 1:47 AM ADT 12:43 AM ADT
Astronomical Twilight Sun does not rise Sun does not rise
Moon 5:08 AM ADT (7/8) 9:39 PM ADT (7/8)
Length of Visible Light 20h 16m
Length of Day
17h 54m
New Moon, 0% of the Moon is Illuminated
Jul 8
New Moon
Jul 16
First Quarter
Jul 22
Full
Jul 29
Last Quarter
Aug 6
New

Hourly Weather History & Observations

Time (ADT) Temp. Dew Point Humidity Pressure Visibility Wind Dir Wind Speed Gust Speed Precip Events Conditions
12:00 AM 37.4 °F - N/A% 29.54 in 9.0 mi North - - N/A   Unknown
1:00 AM 37.4 °F - N/A% 29.54 in 9.0 mi North - - N/A   Unknown
2:00 AM 37.4 °F - N/A% 29.53 in 9.0 mi North - - N/A   Unknown
3:00 AM 36 °F - % 29.52 in 9 mi Calm Calm - -  
3:00 AM 35.6 °F - N/A% 29.52 in 9.0 mi North - - N/A   Unknown
4:00 AM 35.6 °F - N/A% 29.54 in 9.0 mi North - - N/A   Unknown
5:00 AM 33.8 °F - N/A% 29.55 in 9.0 mi North - - N/A   Unknown
6:00 AM 33.8 °F - N/A% 29.58 in 9.0 mi North - - N/A   Unknown
6:23 AM 32.0 °F - N/A% 29.52 in 2.6 mi North - - N/A   Unknown
6:35 AM 32.0 °F - N/A% 29.53 in 1.4 mi North - - N/A   Unknown
6:47 AM 32.0 °F - N/A% 29.53 in 1.0 mi North - - N/A   Unknown
6:59 AM 32.0 °F - N/A% 29.53 in 1.0 mi North - - N/A   Unknown
7:00 AM 32.0 °F - N/A% 29.61 in 1.0 mi North - - N/A   Unknown
7:33 AM 30.2 °F - N/A% 29.54 in 1.8 mi North - - N/A   Unknown
8:00 AM 32.0 °F - N/A% 29.64 in 2.5 mi North - - N/A   Unknown
8:16 AM 32.0 °F - N/A% 29.55 in 4.0 mi North - - N/A   Unknown
9:00 AM 32 °F - % 29.65 in 4 mi Calm Calm - -  
9:00 AM 32.0 °F - N/A% 29.65 in 4.0 mi North - - N/A   Unknown
10:00 AM 33.8 °F - N/A% 29.66 in 9.0 mi North - - N/A   Unknown
11:00 AM 33.8 °F - N/A% 29.69 in 9.0 mi North - - N/A   Unknown
11:28 AM 33.8 °F - N/A% 29.62 in 2.0 mi North - - N/A   Unknown
11:53 AM 33.8 °F - N/A% 29.64 in 1.2 mi North - - N/A   Unknown
12:00 PM 33.8 °F - N/A% 29.72 in 1.2 mi North - - N/A   Unknown
12:05 PM 32.0 °F - N/A% 29.64 in 3.0 mi North - - N/A   Unknown
12:19 PM 32.0 °F - N/A% 29.64 in 2.5 mi North - - N/A   Unknown
12:22 PM 32.0 °F - N/A% 29.64 in 1.2 mi North - - N/A   Unknown
12:35 PM 32.0 °F - N/A% 29.65 in 1.0 mi North - - N/A   Unknown
12:36 PM 32.0 °F - N/A% 29.65 in 0.6 mi North - - N/A   Unknown
12:46 PM 32.0 °F - N/A% 29.65 in 0.4 mi North - - N/A   Unknown
1:00 PM 32.0 °F - N/A% 29.75 in 0.2 mi North - - N/A   Unknown
1:11 PM 32.0 °F - N/A% 29.66 in 0.1 mi North - - N/A   Unknown
2:00 PM 33.8 °F - N/A% 29.77 in 0.1 mi North - - N/A   Unknown
3:00 PM 30 °F - % 29.80 in 0 mi Calm Calm - -  
3:00 PM 30.2 °F - N/A% 29.80 in 0.1 mi North - - N/A   Unknown
4:00 PM 28.4 °F - N/A% 29.83 in 0.1 mi North - - N/A   Unknown
5:00 PM 28.4 °F - N/A% 29.85 in 0.1 mi North - - N/A   Unknown
6:00 PM 28.4 °F - N/A% 29.86 in 0.0 mi North - - N/A   Unknown
7:00 PM 28.4 °F - N/A% 29.89 in 0.1 mi North - - N/A   Unknown
7:53 PM 30.2 °F - N/A% 29.81 in 0.6 mi North - - N/A   Unknown
7:55 PM 30.2 °F - N/A% 29.81 in 1.1 mi North - - N/A   Unknown
8:00 PM 30.2 °F - N/A% 29.91 in 1.2 mi North - - N/A   Unknown
8:04 PM 30.2 °F - N/A% 29.82 in 0.1 mi North - - N/A   Unknown
9:00 PM 30 °F - % 29.94 in 0 mi Calm Calm - -  
9:00 PM 30.2 °F - N/A% 29.94 in 0.1 mi North - - N/A   Unknown
9:54 PM 30.2 °F - N/A% 29.87 in 0.4 mi North - - N/A   Unknown
10:00 PM 30.2 °F - N/A% 29.96 in 0.4 mi North - - N/A   Unknown
10:24 PM 32.0 °F - N/A% 29.88 in 0.1 mi North - - N/A   Unknown
11:00 PM 32.0 °F - N/A% 29.97 in 0.1 mi North - - N/A   Unknown
11:13 PM 32.0 °F - N/A% 29.88 in 0.5 mi North - - N/A   Unknown
11:16 PM 32.0 °F - N/A% 29.88 in 0.4 mi North - - N/A   Unknown
11:22 PM 30.2 °F - N/A% 29.88 in 0.1 mi North - - N/A   Unknown